CW0315 Weather Reports


time (UTC)temp
F
wind
direction
speed
knots
gust
knots
rain 1hr
in
rain 24hr
in
rain mn
in
humidity
%
barometer
mb
20260505110312 71 270 1.7 5.2 0.00 0.00 0.00 47 1005.7
20260505094311 70 180 2.6 7.0 0.00 0.00 0.00 46 1006.3
20260505093311 69 202 5.2 9.6 0.00 0.00 0.00 46 1006.1
20260505092310 67 202 2.6 6.1 0.00 0.00 0.00 50 1006.1
20260505091311 68 202 3.5 7.0 0.00 0.00 0.00 48 1006.7
20260505090310 67 180 2.6 5.2 0.00 0.00 0.00 48 1006.6
20260505085310 68 292 1.7 5.2 0.00 0.00 0.00 49 1006.6
20260505084310 69 292 2.6 7.0 0.00 0.00 0.00 50 1006.6
20260505083310 66 202 4.3 6.1 0.00 0.00 0.00 51 1006.4
20260505082310 67 157 0.9 5.2 0.00 0.00 0.00 49 1006.7
20260505081310 65 180 2.6 5.2 0.00 0.00 0.00 52 1006.5
20260505080310 65 180 0.0 6.1 0.00 0.00 0.00 55 1006.6
20260505075309 65 67 0.0 6.1 0.00 0.00 0.00 56 1006.6
20260505073311 64 180 2.6 4.3 0.00 0.00 0.00 55 1006.4
20260505072311 64 202 0.9 2.6 0.00 0.00 0.00 53 1006.4
20260505071311 64 0 0.0 0.0 0.00 0.00 0.00 58 1006.6
20260505070311 62 0 0.0 3.5 0.00 0.00 0.00 58 1006.4
20260505064311 62 0 0.0 2.6 0.00 0.00 0.00 62 1006.8
20260505062310 62 0 0.0 0.0 0.00 0.00 0.00 58 1007.1
20260505061310 60 0 0.0 0.0 0.00 0.00 0.00 64 1006.9
20260505055310 56 0 0.0 4.3 0.00 0.00 0.00 72 1006.7
20260505053310 54 45 4.3 5.2 0.00 0.00 0.00 72 1006.5
20260505052310 53 45 3.5 5.2 0.00 0.00 0.00 74 1006.5
20260505051310 53 45 3.5 5.2 0.00 0.00 0.00 75 1006.5
20260505041314 53 45 3.5 5.2 0.00 0.00 0.00 72 1007.0
20260505040314 54 45 3.5 5.2 0.00 0.00 0.00 70 1007.2
20260505035313 54 45 3.5 4.3 0.00 0.00 0.00 69 1007.2
20260505033314 53 45 3.5 5.2 0.00 0.00 0.00 70 1007.1
20260505032313 53 45 3.5 5.2 0.00 0.00 0.00 71 1007.3
20260505031313 53 45 2.6 3.5 0.00 0.00 0.00 71 1007.4
20260505030313 53 45 3.5 4.3 0.00 0.00 0.00 70 1007.4
20260505025313 53 45 3.5 4.3 0.00 0.00 0.00 70 1007.4
20260505024313 53 45 3.5 4.3 0.00 0.00 0.00 69 1007.5
20260505023312 53 22 2.6 3.5 0.00 0.00 0.00 69 1007.5
20260505022312 53 45 3.5 4.3 0.00 0.00 0.00 68 1007.6
20260505021313 53 45 3.5 4.3 0.00 0.00 0.00 67 1007.8
20260505020312 53 45 3.5 4.3 0.00 0.00 0.00 66 1008.1
20260505013312 54 45 1.7 4.3 0.00 0.00 0.00 65 1008.2
20260505012312 54 45 2.6 3.5 0.00 0.00 0.00 64 1008.2
20260505010311 55 45 2.6 2.6 0.00 0.00 0.00 64 1008.5
20260505004311 57 22 1.7 3.5 0.00 0.00 0.00 58 1008.7
20260505003313 57 22 2.6 4.3 0.00 0.00 0.00 58 1008.6
20260505002311 57 45 3.5 4.3 0.00 0.00 0.00 59 1008.6
20260505001310 57 22 4.3 5.2 0.00 0.00 0.00 57 1008.7
20260505000311 56 45 3.5 4.3 0.00 0.00 0.00 60 1008.6
20260504234310 56 22 1.7 3.5 0.00 0.00 0.00 60 1008.9
20260504233310 57 0 0.0 3.5 0.00 0.00 0.00 61 1008.8
20260504232310 57 0 0.0 3.5 0.00 0.00 0.00 60 1008.8
20260504225309 60 0 0.0 0.0 0.00 0.00 0.00 55 1008.9
20260504223311 61 22 2.6 4.3 0.00 0.00 0.00 52 1009.1
20260504222309 61 22 1.7 2.6 0.00 0.00 0.00 55 1008.9
20260504221309 62 360 0.9 2.6 0.00 0.00 0.00 48 1009.5
20260504220314 62 45 5.2 8.7 0.00 0.00 0.00 51 1010.2
20260504215314 61 67 3.5 8.7 0.00 0.00 0.00 54 1010.1
20260504211314 64 202 0.0 2.6 0.00 0.00 0.00 48 1010.3
20260504210313 63 360 2.6 7.0 0.00 0.00 0.00 49 1009.8
20260504204313 62 67 7.0 10.4 0.00 0.00 0.00 49 1010.1
20260504203314 62 90 1.7 4.3 0.00 0.00 0.00 50 1010.3
20260504202313 62 45 4.3 7.0 0.00 0.00 0.00 49 1010.3
20260504201312 63 22 5.2 8.7 0.00 0.00 0.00 48 1010.5
20260504200312 63 22 3.5 7.8 0.00 0.00 0.00 46 1010.4
20260504195315 63 360 8.7 11.3 0.00 0.00 0.00 46 1010.4
20260504194312 64 360 1.7 12.2 0.00 0.00 0.00 45 1010.4
20260504193313 62 360 5.2 11.3 0.00 0.00 0.00 46 1010.3
20260504191312 62 337 0.0 2.6 0.00 0.00 0.00 50 1009.9
20260504190311 63 67 0.0 2.6 0.00 0.00 0.00 46 1009.9
20260504185311 65 360 3.5 7.0 0.00 0.00 0.00 40 1009.4
20260504184311 65 22 3.5 7.0 0.00 0.00 0.00 40 1009.1
20260504183311 65 22 3.5 6.1 0.00 0.00 0.00 42 1009.1
20260504182311 66 67 1.7 6.1 0.00 0.00 0.00 35 1009.0
20260504181311 67 0 0.0 2.6 0.00 0.00 0.00 35 1008.9
20260504180311 68 0 0.0 6.1 0.00 0.00 0.00 33 1009.1
20260504175311 68 67 1.7 8.7 0.00 0.00 0.00 33 1009.1
20260504174311 68 67 0.9 2.6 0.00 0.00 0.00 40 1008.9
20260504173310 69 67 0.9 2.6 0.00 0.00 0.00 37 1008.7
20260504172310 69 67 0.0 4.3 0.00 0.00 0.00 36 1008.7
20260504171310 69 45 2.6 3.5 0.00 0.00 0.00 36 1008.7
20260504170310 70 67 0.9 3.5 0.00 0.00 0.00 35 1008.7
20260504160309 73 0 0.0 3.5 0.00 0.00 0.00 34 1009.4
20260504141313 73 180 4.3 6.1 0.00 0.00 0.00 39 1010.2
20260504140312 73 202 0.0 7.0 0.00 0.00 0.00 38 1010.5
20260504130312 72 202 4.3 7.8 0.00 0.00 0.00 37 1011.1
20260504120311 71 90 0.0 7.8 0.00 0.00 0.00 43 1011.5